Weather History for KNLC - April, 2013

Change the Weather History Date:

Friday, April 12, 2013

  Actual Average Record
Temperature  
Mean Temperature 66 °F -  
Max Temperature 82 °F 71 °F 90 °F (2008)
Min Temperature 51 °F 45 °F 36 °F (1998)
Cooling Degree Days 2    
Growing Degree Days 16 (Base 50)    
Moisture  
Dew Point 41 °F    
Average Humidity 35    
Maximum Humidity 71    
Minimum Humidity 22    
Precipitation  
Precipitation 0.00 in - - ()
Sea Level Pressure  
Sea Level Pressure 29.84 in    
Wind  
Wind Speed 6 mph (NW)    
Max Wind Speed 12 mph    
Max Gust Speed -    
Visibility 10 miles    
Events      
Averages and records for this station are not official NWS values.
T = Trace of Precipitation, MM = Missing Value Source: NWS Daily Summary

Daily Weather History Graph

Daily Weather History Graph

Search for Another Location

Airport or City:

Trip Planner

Search our weather history database for the weather conditions in past years. The results will help you decide how hot, cold, wet, or windy it might be!

Date:

Astronomy

Apr. 12, 2013 Rise Set
Actual Time 6:29 AM PDT 7:31 PM PDT
Civil Twilight 6:03 AM PDT 7:58 PM PDT
Nautical Twilight 5:32 AM PDT 8:29 PM PDT
Astronomical Twilight 4:59 AM PDT 9:01 PM PDT
Moon 7:47 AM PDT (4/12) 10:02 PM PDT (4/12)
Length of Visible Light 13h 54m
Length of Day
13h 01m
Waxing Crescent, 6% of the Moon is Illuminated
Apr 12
Waxing Crescent
Apr 18
First Quarter
Apr 25
Full
May 2
Last Quarter
May 9
New

Hourly Weather History & Observations

Time (PDT) Temp. Dew Point Humidity Pressure Visibility Wind Dir Wind Speed Gust Speed Precip Events Conditions
12:56 AM - - N/A% 29.82 in 10.0 mi Calm Calm - N/A   Clear
1:56 AM - - N/A% 29.82 in 10.0 mi East 3.5 mph - N/A   Clear
2:56 AM - - N/A% 29.82 in 10.0 mi SE 5.8 mph - N/A   Clear
3:56 AM - - N/A% 29.84 in 10.0 mi Calm Calm - N/A   Clear
4:56 AM - - N/A% 29.85 in 10.0 mi WNW 3.5 mph - N/A   Clear
5:56 AM - - N/A% 29.85 in 10.0 mi WNW 6.9 mph - N/A   Clear
6:56 AM - - N/A% 29.87 in 10.0 mi West 6.9 mph - N/A   Clear
7:16 AM 51.8 °F 42.8 °F 71% 29.87 in 10.0 mi West 5.8 mph - N/A   Clear
7:56 AM 58.6 °F 44.1 °F 58% 29.88 in 9.0 mi WNW 9.2 mph - N/A   Clear
8:56 AM 64.6 °F 44.1 °F 47% 29.91 in 10.0 mi NNW 10.4 mph - N/A   Partly Cloudy
9:56 AM 68.7 °F 42.1 °F 38% 29.91 in 10.0 mi NNW 10.4 mph - N/A   Partly Cloudy
10:56 AM 71.2 °F 42.1 °F 35% 29.91 in 10.0 mi Variable 5.8 mph - N/A   Partly Cloudy
11:56 AM 72.9 °F 42.1 °F 33% 29.89 in 10.0 mi NNW 8.1 mph - N/A   Partly Cloudy
12:56 PM 76.6 °F 39.9 °F 27% 29.87 in 10.0 mi Variable 3.5 mph - N/A   Partly Cloudy
1:56 PM 79.5 °F 37.0 °F 22% 29.84 in 10.0 mi NW 10.4 mph - N/A   Partly Cloudy
2:56 PM 81.0 °F 39.0 °F 22% 29.82 in 10.0 mi NW 11.5 mph - N/A   Scattered Clouds
3:56 PM 82.0 °F 39.9 °F 22% 29.80 in 10.0 mi North 11.5 mph - N/A   Scattered Clouds
4:56 PM 79.5 °F 39.0 °F 23% 29.79 in 10.0 mi North 9.2 mph - N/A   Mostly Cloudy
5:56 PM 79.5 °F 39.9 °F 24% 29.77 in 10.0 mi NNE 11.5 mph - N/A   Mostly Cloudy
6:56 PM - - N/A% 29.78 in 10.0 mi North 8.1 mph - N/A   Clear
7:56 PM - - N/A% 29.80 in 10.0 mi North 8.1 mph - N/A   Clear
8:56 PM - - N/A% 29.82 in 10.0 mi NW 9.2 mph - N/A   Clear
9:56 PM - - N/A% 29.83 in 10.0 mi WNW 8.1 mph - N/A   Clear
10:56 PM - - N/A% 29.83 in 10.0 mi WNW 8.1 mph - N/A   Clear
11:56 PM - - N/A% 29.84 in 10.0 mi NW 11.5 mph - N/A   Clear